Find Starlink 33694

NORAD ID: 63407 Int'l Des: 2025-065 Owner: SPXS Country: US Constellation: starlink operational
LEOCIRCULAR

Live Position

Loading 3D Globe...

About Starlink 33694

Description loading...

Upcoming Passes

Passes for default location (London). Set your location on the main map for personalized predictions.

Altitude History

Loading altitude history...

Two-Line Element Set

1 63407U 25065J 26123.49261022 .00021236 00000-0 77851-3 0 9993
2 63407 43.0007 157.3751 0001682 271.0896 88.9763 15.27601086 61223
Epoch: May 3, 2026 • Age: 14 hours

Current Status

Altitude 489.9 km
Velocity 7.62 km/s
Sub-Earth Point -29.40°S, 128.76°E
Launch Date Mar 31, 2025
Age 1 years
Type internet

Technical Details

Classification Payload
Mass 575.00 kg
Dry Mass 530.00 kg
Total Mass 575.00 kg
Length 0.30 m
Diameter 4.10 m
Span 29.00 m
Shape Box + pan
Manufacturer SPXS
Bus Type Starlink V2MO
Phase Status In Orbit
Owner/State SPXS/US

Most Searched